Regional Weather Roundup
Issued by NWS Midland/Odessa, TX

Skip options and go directly to product.
Home | Oldest Version | Previous Version | Current Version | All | Text Only | Save Text | Print | Product List | Glossary On

Skip product version selection by date and time.   
655
ASUS44 KMAF 222310
RWRMAF
MIDLAND AREA WEATHER ROUNDUP
NATIONAL WEATHER SERVICE MIDLAND TX
500 PM CST MON DEC 22 2014

...IN SOUTHWEST TEXAS AND SOUTHEAST NEW MEXICO...

CITY           SKY/WX    TMP DP  RH WIND       PRES   REMARKS
ALPINE         SUNNY     65  30  26 W16       29.77F
ANDREWS        FAIR      61  34  36 E12       29.64S
ARTESIA        MOCLDY    66  32  28 SW16G22   29.61R
BIG SPRING     CLOUDY    61  33  34 N7        29.68R
CARLSBAD       PTCLDY    69  30  23 W20       29.59F
DRYDEN           N/A     78  29  16 SW21G26   29.60F
FORT STOCKTON  PTCLDY    71  29  21 NW7       29.64F
GUAD PASS      NOT AVBL
HOBBS          PTCLDY    59  32  36 E9        29.63F
MARFA          SUNNY     63  28  27 SW14      29.77F
MIDLAND AIRPK  CLOUDY    63  35  35 E7        29.64S
MIDLAND INTL   CLOUDY    62  35  36 E3        29.63F
ODESSA         CLOUDY    63  32  31 E5        29.64F
PECOS          CLEAR     70  32  25 SW15      29.62F
PRESIDIO       FAIR      73  31  21 S7        29.70F
SEMINOLE       MOCLDY    57  32  39 E10       29.65S
SNYDER         CLOUDY    56  35  45 N7        29.68R
WINK           CLEAR     70  30  22 SW12      29.60F
$$
...OTHER STATIONS IN TEXAS...

CITY           SKY/WX    TMP DP  RH WIND       PRES   REMARKS
ABILENE        CLOUDY    60  35  39 N12       29.67R
AMARILLO       CLOUDY    45  25  45 N13       29.73R WCI  39
AUSTIN         CLOUDY    67  56  67 S7        29.61R
BROWNSVILLE    CLEAR     73  64  73 S15       29.65F
CORPUS CHRISTI PTCLDY    76  60  57 S5        29.62F
DALLAS FTW     CLOUDY    59  45  59 NW16      29.63R
DEL RIO        MOCLDY    61  53  75 CALM      29.62F
EL PASO        MOSUNNY   66  32  28 SW15G28   29.70F
HOUSTON INT    CLOUDY    69  61  75 SW6       29.62S
LUBBOCK        MOCLDY    51  28  41 NE13      29.68S
SAN ANGELO     CLOUDY    65  35  33 N9        29.63S
SAN ANTONIO    CLOUDY    69  52  54 W3        29.63S
WACO           CLOUDY    63  41  44 N14       29.61R
WICHITA FALLS  NOT AVBL
$$
...OTHER LOCATIONS IN NEW MEXICO...

CITY           SKY/WX    TMP DP  RH WIND       PRES   REMARKS
ALAMAGORDO     MOSUNNY   64  32  29 SW5       29.70F
ALBUQUERQUE    CLOUDY    46  38  73 NW14G23   29.74R WCI  40
CANNON AFB     MOCLDY    48  26  43 E16       29.66F
CLOVIS         MOCLDY    48  27  43 E13       29.68S
HOLLOMAN AFB   SUNNY     65  32  29 SW13      29.68R
ROSWELL        CLOUDY    68  27  21 W15       29.59S
RUIDOSO        PTCLDY    52  28  40 W18G26    29.75R
SANTA FE       PTCLDY    50  21  32 NW33G52   29.63S
TRUTH OR CONSE SUNNY     66  27  23 NW21G29   29.72R
TUCUMCARI      LGT RAIN  39  32  76 NE22G29   29.71R WCI  29
$$

USA.gov is the U.S. government's official web portal to all federal, state and local government web resources and services.